Regional Weather Roundup
Issued by NWS

Home | Current Version | Previous Version | Text Only | Print | Product List | Glossary Off
Versions: 1 2 3 4 5 6 7 8 9 10 11 12 13 14 15 16 17 18 19 20 21 22 23 24 25 26 27 28 29 30 31 32 33 34 35 36 37 38 39 40 41 42 43 44 45 46 47 48 49 50

311
ASUS43 KFSD 180010
RWRSD

WEATHER ROUNDUP FOR SOUTH DAKOTA
NATIONAL WEATHER SERVICE SIOUX FALLS SD
600 PM CST FRI NOV 17 2017

NOTE: "FAIR" INDICATES FEW OR NO CLOUDS BELOW 12,000 FEET WITH NO
SIGNIFICANT WEATHER AND/OR OBSTRUCTIONS TO VISIBILITY.


SDZ001>005-009-010-012>017-180100-
NORTHWEST AND NORTH CENTRAL SOUTH DAKOTA

CITY           SKY/WX    TMP DP  RH WIND       PRES   REMARKS
BUFFALO          N/A     38  31  76 SW6       29.62R
FAITH            N/A     38  38 100 W5        29.69R
MOBRIDGE       CLOUDY    38  27  64 N7        29.67R
$$

SDZ012>016-024>037-041>051-057-063-072>074-180100-
SOUTHWEST AND SOUTH CENTRAL SOUTH DAKOTA

CITY           SKY/WX    TMP DP  RH WIND       PRES   REMARKS
RAPID CTY ARPT CLOUDY    38  36  92 N7        29.69R
PIERRE         CLOUDY    41  35  79 N7        29.70R
CUSTER         CLOUDY    33  30  88 NE5       29.66R WCI  29
ELLSWORTH AFB  CLOUDY    39  39 100 N5        29.69
PHILIP         LGT RAIN  39  38  96 N5        29.71R
PINE RIDGE     CLOUDY    41  34  76 SE5       29.66R
SPEARFISH      CLOUDY    36  36 100 W3        29.72R
WINNER         CLOUDY    44  35  70 N7        29.69R
$$

SDZ004>011-016>023-039-040-180100-
NORTHEAST SOUTH DAKOTA

CITY           SKY/WX    TMP DP  RH WIND       PRES   REMARKS
ABERDEEN       CLOUDY    35  22  58 N8        29.70S WCI  29
WATERTOWN      CLOUDY    35  30  82 NE8       29.65R WCI  29
BROOKINGS      CLOUDY    37  31  78 N9        29.66R
SISSETON         N/A     33  25  72 N8        29.68R WCI  26
$$

SDZ017-020-022-023-036>040-048>070-180100-
SOUTHEAST SOUTH DAKOTA

CITY           SKY/WX    TMP DP  RH WIND       PRES   REMARKS
SIOUX FALLS    CLOUDY    44  34  67 NE9       29.63R
HURON          CLOUDY    42  30  62 N10       29.66S
CHAMBERLAIN    CLOUDY    45  38  77 N7        29.66F
MITCHELL       CLOUDY    43  33  68 N8        29.67R
YANKTON        MOCLDY    43  39  86 N7        29.61F
$$

ABBREVIATIONS USED IN REMARKS
   TC - TEMPERATURE IN CELSIUS
  WCI - WIND CHILL INDEX
   HX - HEAT INDEX
  VSB - VISIBILITY





USA.gov is the U.S. government's official web portal to all federal, state and local government web resources and services.